Vertical_Velocity
1 3 -1 2 -0 -1 -1 -2 -2 -2 -1 -2 -3 -2 -2 -2 -1 -1 -1 -4 -2 2 -0 -1 -1 0 1 1 2 2 2 0 -1 -1 0 1 1 1 1 1 0 1 2
-0 -1 -0 0 2 1 0 0 -1 1 1 0 -1 -3 -2 -2 -0 -0 -0 -0 -3 -4 1 -0 -0 0 -0 1 2 3 3 2 2 2 2 1 1 1 2 1 2 2 0
0 -0 -1 -1 -0 -1 1 -0 -1 -0 1 3 0 1 1 -0 2 2 4 5 -2 2 10 4 -1 1 3 3 -2 -3 -1 -1 1 2 1 1 2 3 2 -0 1 1 2
-1 0 -0 1 1 -1 -2 -1 -0 -1 -1 -2 -1 2 2 2 2 2 1 -8 1 27 12 43 2 -1 1 3 -1 -1 -1 -3 -4 -2 3 4 2 1 -1 -1 -1 -3 -2
-2 -2 -1 -0 -2 -3 -2 -2 -2 -0 -3 -2 -1 -2 -1 0 -0 2 3 -5 3 -3 2 1 2 1 -3 -1 2 0 0 -3 -7 -2 -2 -2 -0 2 1 0 -0 1 1
3 -1 1 1 -0 -0 -1 -0 -1 -0 -1 2 -1 -0 0 1 1 -1 2 3 -14 6 -3 -2 3 -4 3 1 4 -7 9 -0 -0 -4 -2 -2 -1 -0 -1 1 3 4 2
0 1 -0 0 -3 -1 -1 -1 -1 -1 -4 -1 -3 -1 -1 -0 -9 1 -0 -0 3 -4 -0 -2 2 -1 -1 2 5 5 -12 -6 -3 3 2 -0 0 -3 -3 -3 -1 -0 -0
-1 -1 -2 0 -3 -2 -1 -2 -2 -2 -3 -1 -3 -4 1 -7 6 -1 1 -2 -1 1 -1 -1 -2 -0 -2 1 3 -6 1 1 3 1 -1 -0 3 -2 -1 0 -3 -2 -1
-2 -0 -1 -2 1 0 2 -0 -0 -1 -1 -1 0 -3 -1 3 5 2 -3 1 2 1 1 -0 0 1 1 0 -1 1 -3 1 1 -2 -4 -2 -1 -0 3 -4 2 -1 -3
-2 2 -0 1 -1 -0 -4 -2 -2 -2 -3 -2 -3 -2 -0 -1 -2 1 2 -3 -2 -2 -3 0 2 -2 -2 -1 -0 -2 -2 2 1 -0 -2 1 0 -2 -3 3 3 1 1
1 -0 -1 -0 -2 -4 -2 -2 -3 -1 -1 -2 -2 -1 -0 -2 -2 -3 1 5 5 -0 -0 -2 -3 -1 2 1 -1 -3 -3 1 -0 1 2 2 -3 1 -0 -1 -2 -1 -3
-2 -1 -2 -3 -2 -2 -2 -1 -1 -2 -2 -3 -1 -3 -3 -1 -1 -1 -1 0 -5 1 -2 -1 -4 -2 2 1 2 2 3 3 1 -2 0 -1 0 2 -1 -0 3 1 2
-2 -1 -1 -1 -3 0 -2 -1 -2 -1 -2 -2 -2 -2 -0 -1 -1 -1 -5 -1 -7 0 -2 -0 -4 -5 -6 -5 -4 -7 -1 1 -1 -0 2 0 0 -1 -1 1 -2 0 -3
-1 -3 -3 -2 -1 -0 0 -1 -1 -1 -2 -3 -2 -2 -2 -1 -2 -3 -5 -10 1 2 2 -4 -0 -2 -3 -4 -5 -5 -3 -2 -0 2 -1 -2 -3 -0 0 -1 -2 -2 -1
-2 -3 -2 1 -0 0 -0 -2 -1 -3 -2 -3 -1 -2 -1 -1 -1 -2 -3 -4 -9 -15 3 1 -11 -2 -3 -7 -6 -9 -7 -3 -4 -1 -0 1 -1 -1 -3 -1 1 1 -0
-2 -3 -1 0 -0 -1 -1 -1 -3 -2 -2 -2 -2 -2 -1 -1 -1 -1 -4 -3 -3 -8 -14 -14 7 -7 -5 -4 -7 -5 -7 -8 -3 -3 -1 -1 2 0 -4 -3 -1 -1 -2
-3 -1 -0 -3 -1 -0 -2 -2 -2 -3 -1 -2 -2 -2 -1 -0 -3 -1 0 -4 -5 -9 -13 17 -11 -4 -4 -11 -8 -3 -3 -5 -3 1 -0 1 -3 -5 -0 -4 -4 -3 -3
1 -2 -1 -2 -1 -1 -0 -1 -3 -1 -3 -2 -2 -1 -1 -2 -2 -5 -5 -6 -5 -6 -13 -14 -1 -3 -5 -9 -11 -12 -6 6 -3 0 3 -5 -9 3 -3 1 -0 -6 -5
-0 -2 -2 -1 -1 -1 -1 -2 -3 -2 -2 -3 -0 -2 -4 -2 -3 -4 -5 -4 -3 -7 -7 -12 -13 -4 -10 -5 -14 4 3 -7 5 3 -3 -8 12 -2 5 -3 -4 -2 -3
-1 -1 -1 -2 -0 -1 -2 -2 -3 -3 -3 -1 -2 -3 -1 -3 -4 -3 -3 -6 -8 -6 -6 -7 -8 -10 -10 -3 5 -33 -12 11 -13 13 5 -1 -6 -2 -2 -3 -4 -3 -3
-2 -1 1 -1 -1 -3 -2 -3 -2 -2 -1 -3 -3 -1 -0 -0 -1 -4 -9 -6 -7 -7 -8 -6 -3 -3 -12 -17 -19 -9 -8 -13 10 -8 -6 9 -21 2 0 3 -3 3 -1
-1 0 0 -2 -3 -3 -1 -1 -0 -2 -3 -1 1 -1 -3 -2 -1 -3 -3 -6 -8 -16 -6 -13 -8 -20 -2 -10 -7 -10 -10 -16 -30 43 -10 -0 -11 1 -3 3 -3 2 -3
1 1 -2 -3 -4 -0 0 -1 -2 -5 -0 1 1 -2 -2 -2 -3 -3 -3 -5 -7 -5 -9 -16 -12 -5 -17 -5 -7 -6 5 -3 -5 -5 -4 -14 -2 -1 2 2 -1 6 9
0 -2 -3 -3 -1 1 -1 -3 -4 -2 0 0 -1 -1 -2 -4 -6 -5 -5 -5 -5 -4 -5 -4 -2 -1 3 -4 -1 -5 -9 1 5 4 -2 -15 2 3 2 12 4 5 11
-1 -1 -3 -1 0 -3 -2 -2 -3 -2 -1 -1 -2 -1 -4 -5 -3 -2 -4 -3 -4 -3 2 2 -4 -2 1 3 2 -2 3 -4 -0 -1 1 -13 0 -9 -3 12 -1 -1 -0
-0 -0 -2 -1 -3 -0 -3 1 -4 -1 1 0 -3 -5 -4 -6 -5 -5 -4 -6 -4 -8 -9 -6 5 4 -8 -3 2 3 -4 -5 0 3 6 -7 -4 -20 -17 3 5 -3 2
Height
3176 3177 3177 3177 3176 3176 3176 3176 3175 3174 3174 3173 3172 3171 3171 3171 3171 3170 3169 3168 3168 3168 3167 3165 3164 3164 3163 3162 3160 3159 3158 3157 3156 3154 3153 3151 3151 3150 3149 3149 3148 3147 3146
3174 3174 3174 3174 3174 3174 3173 3172 3172 3172 3171 3170 3169 3168 3167 3167 3167 3166 3165 3164 3162 3161 3162 3160 3159 3157 3155 3155 3153 3152 3150 3149 3148 3147 3146 3144 3143 3142 3142 3141 3140 3140 3139
3173 3173 3172 3172 3172 3171 3171 3169 3169 3168 3168 3166 3165 3165 3164 3163 3163 3162 3161 3160 3158 3157 3153 3152 3151 3150 3148 3146 3144 3143 3141 3140 3138 3136 3136 3135 3134 3132 3131 3131 3130 3130 3130
3171 3171 3171 3171 3170 3169 3168 3167 3165 3164 3162 3162 3161 3160 3160 3159 3158 3157 3155 3154 3152 3149 3149 3145 3145 3142 3141 3140 3137 3135 3133 3131 3129 3128 3125 3123 3122 3121 3121 3120 3120 3119 3119
3169 3168 3168 3167 3166 3164 3162 3161 3159 3158 3157 3156 3155 3154 3153 3153 3152 3150 3149 3145 3145 3143 3141 3140 3138 3136 3132 3131 3130 3127 3125 3123 3118 3117 3115 3114 3112 3111 3110 3108 3108 3108 3108
3165 3164 3164 3162 3160 3158 3156 3155 3154 3153 3151 3151 3149 3149 3148 3147 3145 3144 3143 3141 3135 3136 3133 3131 3130 3126 3125 3123 3120 3115 3115 3109 3109 3107 3105 3102 3101 3100 3098 3098 3097 3096 3096
3161 3160 3159 3158 3156 3155 3153 3152 3151 3150 3148 3147 3146 3145 3144 3143 3140 3140 3138 3135 3134 3131 3128 3126 3123 3120 3117 3115 3112 3108 3103 3100 3097 3095 3094 3091 3089 3087 3085 3084 3083 3083 3082
3157 3156 3155 3154 3153 3151 3150 3149 3149 3147 3146 3145 3143 3142 3142 3139 3138 3136 3134 3131 3129 3126 3123 3120 3116 3113 3109 3106 3102 3097 3095 3090 3087 3085 3082 3078 3075 3073 3071 3070 3068 3069 3068
3152 3151 3151 3151 3149 3148 3148 3147 3146 3145 3143 3142 3141 3139 3138 3137 3135 3133 3129 3127 3124 3121 3118 3114 3110 3106 3101 3097 3092 3089 3084 3080 3077 3072 3068 3065 3062 3059 3057 3054 3054 3054 3052
3148 3148 3148 3147 3147 3147 3147 3146 3144 3143 3141 3139 3137 3136 3134 3131 3129 3128 3126 3121 3118 3114 3110 3106 3103 3098 3093 3089 3084 3079 3074 3069 3065 3060 3055 3051 3048 3045 3042 3040 3038 3037 3035
3145 3145 3146 3147 3147 3146 3145 3143 3142 3140 3138 3136 3134 3132 3130 3126 3122 3118 3115 3113 3111 3107 3103 3099 3094 3089 3085 3079 3074 3069 3063 3057 3052 3047 3042 3037 3032 3028 3025 3022 3021 3019 3017
3143 3144 3145 3145 3144 3143 3141 3140 3139 3136 3135 3133 3131 3128 3125 3121 3117 3113 3108 3104 3100 3095 3093 3090 3084 3079 3074 3068 3063 3056 3050 3044 3038 3032 3026 3021 3015 3011 3006 3003 3001 3000 2999
3141 3142 3142 3142 3141 3140 3138 3137 3135 3133 3132 3130 3127 3124 3120 3116 3112 3108 3103 3098 3093 3091 3084 3078 3072 3068 3063 3058 3050 3043 3036 3028 3021 3015 3009 3003 2998 2992 2987 2984 2980 2978 2977
3139 3139 3139 3138 3137 3136 3135 3133 3132 3130 3128 3125 3122 3119 3116 3112 3108 3103 3098 3091 3086 3083 3078 3070 3063 3056 3049 3042 3036 3029 3022 3014 3006 2998 2990 2983 2979 2973 2968 2963 2959 2957 2955
3135 3135 3135 3135 3134 3133 3131 3130 3128 3126 3124 3121 3119 3115 3111 3107 3103 3098 3093 3086 3077 3068 3065 3061 3054 3047 3038 3029 3020 3011 3003 2996 2989 2981 2974 2966 2959 2955 2950 2945 2940 2937 2935
3132 3132 3132 3132 3131 3130 3129 3128 3126 3123 3121 3118 3114 3110 3107 3103 3098 3093 3087 3080 3073 3066 3057 3051 3044 3034 3027 3017 3009 2997 2988 2979 2971 2964 2958 2952 2945 2938 2933 2929 2925 2921 2917
3129 3129 3129 3129 3129 3128 3126 3124 3122 3120 3118 3114 3110 3106 3102 3097 3092 3086 3079 3073 3067 3060 3051 3044 3036 3027 3016 3005 2997 2987 2978 2964 2956 2948 2944 2939 2932 2927 2920 2914 2909 2904 2900
3126 3126 3126 3126 3125 3124 3122 3120 3119 3116 3113 3109 3105 3101 3096 3091 3085 3078 3072 3067 3059 3053 3044 3035 3026 3017 3007 2996 2985 2975 2965 2955 2944 2937 2932 2927 2921 2915 2907 2900 2893 2887 2882
3122 3123 3123 3122 3121 3120 3118 3117 3115 3112 3108 3104 3100 3096 3091 3085 3079 3073 3068 3061 3054 3047 3039 3028 3018 3007 2998 2985 2973 2967 2955 2945 2936 2929 2923 2916 2909 2902 2895 2887 2879 2871 2864
3119 3120 3119 3118 3117 3116 3115 3113 3110 3107 3103 3099 3095 3091 3086 3080 3074 3068 3062 3056 3049 3040 3031 3021 3010 2999 2989 2979 2965 2951 2945 2932 2924 2919 2911 2903 2899 2891 2884 2874 2866 2856 2848
3115 3114 3114 3114 3113 3112 3111 3109 3106 3102 3099 3095 3090 3085 3081 3077 3071 3064 3057 3050 3043 3035 3025 3014 3004 2993 2982 2969 2956 2946 2934 2923 2915 2910 2899 2892 2890 2882 2874 2864 2855 2847 2839
3110 3110 3110 3110 3109 3108 3107 3104 3102 3099 3095 3091 3087 3081 3076 3072 3067 3062 3056 3049 3040 3028 3018 3008 2997 2984 2974 2964 2952 2940 2928 2915 2901 2904 2886 2883 2878 2872 2865 2856 2846 2840 2834
3106 3106 3106 3106 3105 3104 3102 3100 3098 3095 3090 3087 3083 3078 3073 3068 3063 3057 3051 3043 3034 3027 3016 3003 2992 2981 2970 2959 2948 2936 2925 2915 2904 2895 2882 2872 2869 2864 2857 2848 2842 2836 2828
3101 3102 3102 3102 3102 3100 3098 3096 3093 3089 3086 3083 3078 3073 3068 3064 3058 3051 3044 3038 3032 3023 3014 3004 2993 2980 2968 2958 2946 2934 2923 2911 2903 2895 2881 2868 2863 2857 2851 2845 2836 2830 2824
3097 3097 3098 3098 3097 3096 3094 3091 3088 3085 3082 3078 3074 3070 3064 3059 3053 3046 3041 3035 3028 3020 3013 3003 2991 2979 2968 2957 2946 2932 2920 2906 2895 2888 2879 2867 2857 2848 2845 2839 2831 2825 2819
3092 3093 3094 3094 3093 3091 3090 3087 3086 3083 3079 3076 3071 3066 3062 3056 3049 3042 3036 3030 3023 3015 3006 2997 2988 2980 2969 2957 2946 2934 2921 2907 2894 2882 2875 2864 2854 2844 2833 2833 2827 2821 2816